,,Stat6,,Stat2,,Stat8,,Stat9,,Stat10,,Wind1,,Wind1,
time,status,PA1M_AVG,status,PR1M_SUM,status,RH1M_AVG,status,SR1M_AVG,status,TA1M_AVG,status,W1dAve1m,status,W1sAve1m,
2004-08-07, 00:00:01,VALID,918.644,VALID,0,VALID,98.1374,VALID,-0.0509425,VALID,17.0321,VALID,142,VALID,0.762576,
2004-08-07, 00:01:01,VALID,918.634,VALID,0,VALID,98.1946,VALID,-0.0509425,VALID,17.0354,VALID,138,VALID,0.870384,
2004-08-07, 00:02:00,VALID,918.624,VALID,0,VALID,98.1831,VALID,-0.0849042,VALID,17.0616,VALID,136,VALID,0.980655,
2004-08-07, 00:03:00,VALID,918.62,VALID,0,VALID,98.0687,VALID,-0.0679233,VALID,17.0551,VALID,135,VALID,1.05095,
2004-08-07, 00:04:00,VALID,918.622,VALID,0,VALID,97.9136,VALID,-0.0679233,VALID,17.0517,VALID,139,VALID,1.03312,
2004-08-07, 00:05:00,VALID,918.625,VALID,0,VALID,97.691,VALID,-0.0679233,VALID,17.0519,VALID,139,VALID,1.00854,
2004-08-07, 00:06:00,VALID,918.628,VALID,0,VALID,97.4481,VALID,-0.0509425,VALID,17.0549,VALID,131,VALID,0.918155,
2004-08-07, 00:07:00,VALID,918.629,VALID,0,VALID,96.942,VALID,-0.0679233,VALID,17.0418,VALID,129,VALID,0.969893,
2004-08-07, 00:08:00,VALID,918.633,VALID,0,VALID,96.3329,VALID,-0.0339617,VALID,17.0386,VALID,137,VALID,0.939406,
2004-08-07, 00:09:00,VALID,918.649,VALID,0,VALID,96.0074,VALID,0.0849042,VALID,17.0311,VALID,138,VALID,0.827744,
2004-08-07, 00:10:00,VALID,918.654,VALID,0,VALID,95.6679,VALID,0.0849042,VALID,17.0539,VALID,134,VALID,0.915879,
2004-08-07, 00:11:00,VALID,918.67,VALID,0,VALID,95.4301,VALID,0,VALID,17.0666,VALID,126,VALID,1.03594,
2004-08-07, 00:12:00,VALID,918.67,VALID,0,VALID,95.3157,VALID,0.0169808,VALID,17.1055,VALID,118,VALID,1.03837,
2004-08-07, 00:13:01,VALID,918.676,VALID,0,VALID,94.985,VALID,0.0849042,VALID,17.1638,VALID,119,VALID,0.87429,
2004-08-07, 00:14:01,VALID,918.662,VALID,0,VALID,94.6786,VALID,0.0169808,VALID,17.2088,VALID,120,VALID,0.97561,
2004-08-07, 00:15:00,VALID,918.656,VALID,0,VALID,94.245,VALID,0.0509425,VALID,17.2445,VALID,120,VALID,0.663872,
2004-08-07, 00:16:00,VALID,918.645,VALID,0,VALID,93.7211,VALID,0.0509425,VALID,17.241,VALID,122,VALID,0.526228,
2004-08-07, 00:17:01,VALID,918.631,VALID,0,VALID,92.9225,VALID,0.0509425,VALID,17.1761,VALID,122,VALID,0.301711,
2004-08-07, 00:18:00,VALID,918.608,VALID,0,VALID,92.6987,VALID,0.0339617,VALID,17.0313,VALID,122,VALID,0.394259,
2004-08-07, 00:19:00,VALID,918.6,VALID,0,VALID,92.3261,VALID,0.0339617,VALID,16.8316,VALID,107,VALID,0.486328,
2004-08-07, 00:20:01,VALID,918.591,VALID,0,VALID,92.6593,VALID,0.0509425,VALID,16.5955,VALID,85,VALID,0.611192,
2004-08-07, 00:21:01,VALID,918.586,VALID,0,VALID,93.5812,VALID,0.0509425,VALID,16.4277,VALID,72,VALID,0.799162,
2004-08-07, 00:22:00,VALID,918.589,VALID,0,VALID,94.8172,VALID,0.0339617,VALID,16.3341,VALID,79,VALID,0.762576,
2004-08-07, 00:23:01,VALID,918.589,VALID,0,VALID,95.6552,VALID,4.62593e-018,VALID,16.3184,VALID,85,VALID,0.144345,
2004-08-07, 00:24:00,VALID,918.585,VALID,0,VALID,96.174,VALID,-0.0849042,VALID,16.2964,VALID,85,VALID,0.231707,
2004-08-07, 00:25:00,VALID,918.555,VALID,0,VALID,96.6292,VALID,-0.0679233,VALID,16.3194,VALID,85,VALID,0.307049,
2004-08-07, 00:26:00,VALID,918.551,VALID,0,VALID,95.9515,VALID,-0.0339617,VALID,16.2549,VALID,85,VALID,0.374814,
2004-08-07, 00:27:00,VALID,918.544,VALID,0,VALID,95.5242,VALID,-0.0169808,VALID,16.1357,VALID,85,VALID,0.306784,
2004-08-07, 00:28:01,VALID,918.547,VALID,0,VALID,96.0901,VALID,-0.0339617,VALID,16.0515,VALID,85,VALID,0.328307,
2004-08-07, 00:29:00,VALID,918.565,VALID,0,VALID,96.8327,VALID,-0.0509425,VALID,16.0517,VALID,85,VALID,0.446987,
2004-08-07, 00:30:00,VALID,918.557,VALID,0,VALID,97.6503,VALID,-0.0509425,VALID,16.0646,VALID,106,VALID,0.651486,
2004-08-07, 00:31:00,VALID,918.552,VALID,0,VALID,98.4629,VALID,-0.0339617,VALID,16.1291,VALID,122,VALID,0.813772,
2004-08-07, 00:32:01,VALID,918.562,VALID,0,VALID,98.6765,VALID,-0.0679233,VALID,16.2001,VALID,122,VALID,1.00692,
2004-08-07, 00:33:00,VALID,918.547,VALID,0,VALID,98.8851,VALID,-0.0679233,VALID,16.2844,VALID,125,VALID,1.10192,
2004-08-07, 00:34:01,VALID,918.547,VALID,0,VALID,98.5265,VALID,-0.0339617,VALID,16.3775,VALID,127,VALID,1.02444,
2004-08-07, 00:35:00,VALID,918.54,VALID,0,VALID,98.0102,VALID,-0.101885,VALID,16.4394,VALID,132,VALID,0.722842,
2004-08-07, 00:36:00,VALID,918.529,VALID,0,VALID,97.1811,VALID,-0.0679233,VALID,16.4485,VALID,119,VALID,0.53125,
2004-08-07, 00:37:01,VALID,918.538,VALID,0,VALID,95.9591,VALID,-0.0339617,VALID,16.3457,VALID,106,VALID,0.461806,
2004-08-07, 00:38:00,VALID,918.532,VALID,0,VALID,96.7971,VALID,-0.0339617,VALID,16.287,VALID,106,VALID,0.602307,
2004-08-07, 00:39:01,VALID,918.545,VALID,0,VALID,97.3006,VALID,0,VALID,16.3124,VALID,106,VALID,0.502841,
2004-08-07, 00:40:01,VALID,918.548,VALID,0,VALID,97.5181,VALID,0,VALID,16.3154,VALID,106,VALID,0.347942,
2004-08-07, 00:41:00,VALID,918.55,VALID,0,VALID,97.3998,VALID,0,VALID,16.3124,VALID,106,VALID,0.172917,
2004-08-07, 00:42:01,VALID,918.557,VALID,0,VALID,97.5003,VALID,0,VALID,16.3192,VALID,118,VALID,0.633398,
2004-08-07, 00:43:01,VALID,918.564,VALID,0,VALID,97.466,VALID,0.0169808,VALID,16.3352,VALID,120,VALID,0.531613,
2004-08-07, 00:44:01,VALID,918.579,VALID,0,VALID,97.5295,VALID,0,VALID,16.3446,VALID,118,VALID,0.783913,
2004-08-07, 00:45:01,VALID,918.568,VALID,0,VALID,97.5486,VALID,0,VALID,16.3894,VALID,118,VALID,0.821243,
2004-08-07, 00:46:00,VALID,918.569,VALID,0,VALID,97.1175,VALID,0.0169808,VALID,16.412,VALID,121,VALID,0.84184,
2004-08-07, 00:47:00,VALID,918.566,VALID,0,VALID,96.9891,VALID,0.0339617,VALID,16.4418,VALID,126,VALID,0.591882,
2004-08-07, 00:48:01,VALID,918.565,VALID,0,VALID,96.7208,VALID,-0.0169808,VALID,16.4412,VALID,126,VALID,0.648242,
2004-08-07, 00:49:00,VALID,918.555,VALID,0,VALID,96.2147,VALID,0,VALID,16.4287,VALID,126,VALID,0.714753,
2004-08-07, 00:50:01,VALID,918.533,VALID,0,VALID,96.1397,VALID,0.0169808,VALID,16.3709,VALID,126,VALID,0.612537,
2004-08-07, 00:51:00,VALID,918.531,VALID,0,VALID,95.9718,VALID,0.0169808,VALID,16.3094,VALID,126,VALID,0.676215,
2004-08-07, 00:52:00,VALID,918.528,VALID,0,VALID,96.4118,VALID,0.0169808,VALID,16.2571,VALID,126,VALID,0.596168,
2004-08-07, 00:53:01,VALID,918.536,VALID,0,VALID,96.5313,VALID,0.0849042,VALID,16.2351,VALID,131,VALID,0.506541,
2004-08-07, 00:54:00,VALID,918.543,VALID,0,VALID,97.0044,VALID,0.0509425,VALID,16.2089,VALID,146,VALID,0.556548,
2004-08-07, 00:55:00,VALID,918.56,VALID,0,VALID,97.04,VALID,0.0339617,VALID,16.2285,VALID,144,VALID,0.377287,
2004-08-07, 00:56:01,VALID,918.554,VALID,0,VALID,96.6496,VALID,0.0169808,VALID,16.1898,VALID,134,VALID,0.261186,
2004-08-07, 00:57:01,VALID,918.548,VALID,0,VALID,96.4321,VALID,0.0339617,VALID,16.1377,VALID,132,VALID,0.725654,
2004-08-07, 00:58:01,VALID,918.539,VALID,0,VALID,96.867,VALID,0.0679233,VALID,16.1313,VALID,121,VALID,0.941679,
2004-08-07, 00:59:00,VALID,918.53,VALID,0,VALID,96.8251,VALID,0.0509425,VALID,16.1992,VALID,121,VALID,0.814878,
2004-08-07, 01:00:00,VALID,918.519,VALID,0,VALID,96.3851,VALID,0.0849042,VALID,16.2315,VALID,113,VALID,0.600694,
2004-08-07, 01:01:00,VALID,918.507,VALID,0,VALID,95.8281,VALID,0.0169808,VALID,16.1609,VALID,83,VALID,0.69494,
2004-08-07, 01:02:01,VALID,918.48,VALID,0,VALID,96.9026,VALID,0.0169808,VALID,16.1609,VALID,83,VALID,0.709821,
2004-08-07, 01:03:00,VALID,918.443,VALID,0,VALID,96.4627,VALID,0.0509425,VALID,16.122,VALID,83,VALID,0.528764,
2004-08-07, 01:04:00,VALID,918.4,VALID,0,VALID,96.455,VALID,0.0339617,VALID,16.0577,VALID,83,VALID,0.456845,
2004-08-07, 01:05:01,VALID,918.379,VALID,0,VALID,97.2599,VALID,0.0169808,VALID,16.0476,VALID,87,VALID,0.593936,
2004-08-07, 01:06:00,VALID,918.352,VALID,0,VALID,97.4291,VALID,0.0339617,VALID,16.0773,VALID,94,VALID,0.110709,
2004-08-07, 01:07:01,VALID,918.334,VALID,0,VALID,97.4837,VALID,0.0169808,VALID,16.0706,VALID,94,VALID,0.479936,
2004-08-07, 01:08:00,VALID,918.332,VALID,0,VALID,98.042,VALID,0.0339617,VALID,16.1162,VALID,109,VALID,0.629439,
2004-08-07, 01:09:01,VALID,918.339,VALID,0,VALID,97.8436,VALID,0,VALID,16.168,VALID,116,VALID,0.775534,
2004-08-07, 01:10:00,VALID,918.336,VALID,0,VALID,97.2701,VALID,0,VALID,16.1581,VALID,116,VALID,0.878997,
2004-08-07, 01:11:00,VALID,918.326,VALID,0,VALID,97.5092,VALID,0,VALID,16.1684,VALID,114,VALID,0.964472,
2004-08-07, 01:12:01,VALID,918.33,VALID,0,VALID,96.7933,VALID,0,VALID,16.1618,VALID,96,VALID,0.682235,
2004-08-07, 01:13:01,VALID,918.318,VALID,0,VALID,96.3113,VALID,-0.0169808,VALID,16.0904,VALID,95,VALID,0.518973,
2004-08-07, 01:14:00,VALID,918.303,VALID,0,VALID,95.7505,VALID,0,VALID,15.997,VALID,89,VALID,0.560938,
2004-08-07, 01:15:00,VALID,918.288,VALID,0,VALID,95.926,VALID,0.0169808,VALID,15.9037,VALID,70,VALID,0.673437,
2004-08-07, 01:16:00,VALID,918.287,VALID,0,VALID,96.4321,VALID,0,VALID,15.8063,VALID,68,VALID,0.877232,
2004-08-07, 01:17:01,VALID,918.278,VALID,0,VALID,97.5753,VALID,-0.0169808,VALID,15.8357,VALID,67,VALID,0.771839,
2004-08-07, 01:18:00,VALID,918.279,VALID,0,VALID,98.2899,VALID,0,VALID,15.9039,VALID,67,VALID,0.642671,
2004-08-07, 01:19:00,VALID,918.271,VALID,0,VALID,98.7096,VALID,0,VALID,15.9646,VALID,67,VALID,0.385174,
2004-08-07, 01:20:00,VALID,918.267,VALID,0,VALID,98.66,VALID,0,VALID,16.0164,VALID,67,VALID,0.252046,
2004-08-07, 01:21:01,VALID,918.24,VALID,0,VALID,98.1819,VALID,0.0169808,VALID,16.0293,VALID,67,VALID,0.201736,
2004-08-07, 01:22:01,VALID,918.227,VALID,0,VALID,97.7838,VALID,0,VALID,15.997,VALID,67,VALID,0.373047,
2004-08-07, 01:23:01,VALID,918.204,VALID,0,VALID,97.438,VALID,0.0339617,VALID,15.9841,VALID,67,VALID,0.209766,
2004-08-07, 01:24:00,VALID,918.19,VALID,0,VALID,97.2383,VALID,0.101885,VALID,15.9345,VALID,67,VALID,0.266578,
2004-08-07, 01:25:00,VALID,918.177,VALID,0,VALID,97.4481,VALID,0.118866,VALID,15.9311,VALID,67,VALID,0.0256177,
2004-08-07, 01:26:00,VALID,918.151,VALID,0,VALID,97.5422,VALID,0.101885,VALID,15.9117,VALID,67,VALID,0,
2004-08-07, 01:27:00,VALID,918.129,VALID,0,VALID,98.014,VALID,0.101885,VALID,15.9184,VALID,67,VALID,0.0883557,
2004-08-07, 01:28:00,VALID,918.134,VALID,0,VALID,98.7744,VALID,0.101885,VALID,15.9762,VALID,101,VALID,0.551711,
2004-08-07, 01:29:01,VALID,918.139,VALID,0,VALID,98.7668,VALID,0.0849042,VALID,16.0508,VALID,118,VALID,0.675,
2004-08-07, 01:30:00,VALID,918.142,VALID,0,VALID,98.5544,VALID,0.101885,VALID,16.0833,VALID,122,VALID,0.764101,
2004-08-07, 01:31:00,VALID,918.152,VALID,0,VALID,98.3751,VALID,0.101885,VALID,16.1152,VALID,125,VALID,0.944957,
2004-08-07, 01:32:01,VALID,918.162,VALID,0,VALID,98.2683,VALID,0.118866,VALID,16.1504,VALID,125,VALID,0.714063,
2004-08-07, 01:33:01,VALID,918.15,VALID,0,VALID,97.8843,VALID,0.101885,VALID,16.1898,VALID,136,VALID,0.501635,
2004-08-07, 01:34:00,VALID,918.142,VALID,0,VALID,97.6046,VALID,0.0849042,VALID,16.1896,VALID,142,VALID,0.440341,
2004-08-07, 01:35:01,VALID,918.122,VALID,0,VALID,97.4837,VALID,0.101885,VALID,16.2061,VALID,142,VALID,0.335764,
2004-08-07, 01:36:01,VALID,918.091,VALID,0,VALID,97.6249,VALID,0.101885,VALID,16.2019,VALID,142,VALID,0.404535,
2004-08-07, 01:37:01,VALID,918.077,VALID,0,VALID,97.6796,VALID,0.118866,VALID,16.2382,VALID,142,VALID,0.572856,
2004-08-07, 01:38:01,VALID,918.057,VALID,0,VALID,97.7559,VALID,0.0509425,VALID,16.242,VALID,142,VALID,0.501116,
2004-08-07, 01:39:01,VALID,918.063,VALID,0,VALID,97.7864,VALID,0.0339617,VALID,16.2295,VALID,141,VALID,0.488582,
2004-08-07, 01:40:01,VALID,918.074,VALID,0,VALID,97.3947,VALID,0,VALID,16.1912,VALID,137,VALID,0.530007,
2004-08-07, 01:41:00,VALID,918.085,VALID,0,VALID,97.5244,VALID,0,VALID,16.1364,VALID,137,VALID,0.653409,
2004-08-07, 01:42:00,VALID,918.085,VALID,0,VALID,97.6262,VALID,-0.0169808,VALID,16.1071,VALID,138,VALID,0.667878,
2004-08-07, 01:43:01,VALID,918.072,VALID,0,VALID,97.9377,VALID,-0.0169808,VALID,16.1009,VALID,138,VALID,0.929688,
2004-08-07, 01:44:01,VALID,918.041,VALID,0,VALID,98.2048,VALID,-0.0169808,VALID,16.1039,VALID,129,VALID,0.951982,
2004-08-07, 01:45:01,VALID,918.022,VALID,0,VALID,98.5786,VALID,0,VALID,16.1486,VALID,123,VALID,0.963728,
2004-08-07, 01:46:00,VALID,918.019,VALID,0,VALID,98.5621,VALID,0,VALID,16.2297,VALID,120,VALID,0.894345,
2004-08-07, 01:47:00,VALID,918.013,VALID,0,VALID,97.9542,VALID,-0.0169808,VALID,16.2424,VALID,136,VALID,0.89363,
2004-08-07, 01:48:01,VALID,918.026,VALID,0,VALID,98.0928,VALID,-0.0169808,VALID,16.262,VALID,137,VALID,1.19587,
2004-08-07, 01:49:00,VALID,918.011,VALID,0,VALID,98.1043,VALID,0,VALID,16.336,VALID,133,VALID,0.862723,
2004-08-07, 01:50:00,VALID,918.001,VALID,0,VALID,97.9085,VALID,0,VALID,16.3848,VALID,132,VALID,1.02689,
2004-08-07, 01:51:01,VALID,917.983,VALID,0,VALID,97.7991,VALID,0,VALID,16.433,VALID,131,VALID,1.03789,
2004-08-07, 01:52:00,VALID,917.96,VALID,0,VALID,96.7615,VALID,0,VALID,16.4102,VALID,126,VALID,0.670632,
2004-08-07, 01:53:01,VALID,917.921,VALID,0,VALID,96.0125,VALID,0,VALID,16.3166,VALID,112,VALID,0.610137,
2004-08-07, 01:54:01,VALID,917.896,VALID,0,VALID,94.6888,VALID,0,VALID,16.1394,VALID,69,VALID,0.658398,
2004-08-07, 01:55:00,VALID,917.881,VALID,0,VALID,95.2966,VALID,0,VALID,15.968,VALID,69,VALID,0.69215,
2004-08-07, 01:56:01,VALID,917.851,VALID,0,VALID,95.7442,VALID,0,VALID,15.8879,VALID,69,VALID,0.617374,
2004-08-07, 01:57:01,VALID,917.842,VALID,0,VALID,96.4156,VALID,-0.0339617,VALID,15.8166,VALID,69,VALID,0.430233,
2004-08-07, 01:58:01,VALID,917.847,VALID,0,VALID,96.9878,VALID,0,VALID,15.7974,VALID,69,VALID,0.143043,
2004-08-07, 01:59:01,VALID,917.856,VALID,0,VALID,97.1608,VALID,0,VALID,15.7718,VALID,69,VALID,0.0684956,
2004-08-07, 02:00:01,VALID,917.865,VALID,0,VALID,97.4214,VALID,0,VALID,15.7424,VALID,69,VALID,0.000726744,
2004-08-07, 02:01:01,VALID,917.869,VALID,0,VALID,97.9034,VALID,0,VALID,15.7428,VALID,69,VALID,0.0809295,
2004-08-07, 02:02:01,VALID,917.87,VALID,0,VALID,98.2734,VALID,-0.0169808,VALID,15.7615,VALID,69,VALID,0.336107,
2004-08-07, 02:03:01,VALID,917.872,VALID,0,VALID,98.5163,VALID,0.0169808,VALID,15.7714,VALID,69,VALID,0.227163,
2004-08-07, 02:04:01,VALID,917.869,VALID,0,VALID,98.8113,VALID,-0.0169808,VALID,15.7875,VALID,87,VALID,0.523082,
2004-08-07, 02:05:01,VALID,917.854,VALID,0,VALID,99.2691,VALID,-0.0339617,VALID,15.8329,VALID,117,VALID,0.987424,
2004-08-07, 02:06:01,VALID,917.862,VALID,0,VALID,99.3657,VALID,0,VALID,15.8813,VALID,124,VALID,0.907522,
2004-08-07, 02:07:01,VALID,917.856,VALID,0,VALID,99.4369,VALID,0.0169808,VALID,15.9164,VALID,136,VALID,1.03367,
2004-08-07, 02:08:01,VALID,917.859,VALID,0,VALID,99.47,VALID,0,VALID,15.9942,VALID,136,VALID,0.880814,
2004-08-07, 02:09:01,VALID,917.863,VALID,0,VALID,99.4039,VALID,-0.0339617,VALID,16.0948,VALID,138,VALID,0.816964,
2004-08-07, 02:10:01,VALID,917.858,VALID,0,VALID,98.6714,VALID,-0.0169808,VALID,16.1301,VALID,130,VALID,0.735137,
2004-08-07, 02:11:01,VALID,917.856,VALID,0,VALID,98.1183,VALID,-0.0339617,VALID,16.1398,VALID,122,VALID,0.689303,
2004-08-07, 02:12:01,VALID,917.855,VALID,0,VALID,97.5562,VALID,-0.0169808,VALID,16.1366,VALID,119,VALID,0.591264,
2004-08-07, 02:13:01,VALID,917.862,VALID,0,VALID,97.3006,VALID,0,VALID,16.0882,VALID,117,VALID,0.460938,
2004-08-07, 02:14:01,VALID,917.863,VALID,0,VALID,97.1709,VALID,-0.0169808,VALID,16.0458,VALID,117,VALID,0.372582,
2004-08-07, 02:15:00,VALID,917.874,VALID,0,VALID,97.3858,VALID,0.0339617,VALID,15.9908,VALID,117,VALID,0.420785,
2004-08-07, 02:16:00,VALID,917.885,VALID,0,VALID,97.7063,VALID,0,VALID,15.9553,VALID,117,VALID,0.56994,
2004-08-07, 02:17:00,VALID,917.866,VALID,0,VALID,98.0534,VALID,0.0169808,VALID,15.9492,VALID,117,VALID,0.747582,
2004-08-07, 02:18:00,VALID,917.853,VALID,0,VALID,98.1831,VALID,0.0169808,VALID,15.9619,VALID,117,VALID,0.749442,
2004-08-07, 02:19:00,VALID,917.842,VALID,0,VALID,98.2162,VALID,-0.0169808,VALID,15.9811,VALID,117,VALID,0.747997,
2004-08-07, 02:20:00,VALID,917.825,VALID,0,VALID,97.9631,VALID,0,VALID,15.9748,VALID,117,VALID,0.715701,
2004-08-07, 02:21:00,VALID,917.815,VALID,0,VALID,97.8398,VALID,-0.0169808,VALID,15.9684,VALID,117,VALID,0.657366,
2004-08-07, 02:22:00,VALID,917.791,VALID,0,VALID,97.9733,VALID,0,VALID,15.9682,VALID,117,VALID,0.763263,
2004-08-07, 02:23:00,VALID,917.788,VALID,0,VALID,97.7597,VALID,-0.0169808,VALID,15.9946,VALID,117,VALID,0.630682,
2004-08-07, 02:24:00,VALID,917.784,VALID,0,VALID,97.9161,VALID,0,VALID,15.9978,VALID,117,VALID,0.842634,
2004-08-07, 02:25:00,VALID,917.781,VALID,0,VALID,97.7521,VALID,-0.0169808,VALID,16.0043,VALID,132,VALID,0.921875,
2004-08-07, 02:26:00,VALID,917.789,VALID,0,VALID,97.8551,VALID,0,VALID,16.0135,VALID,142,VALID,1.11719,
2004-08-07, 02:27:00,VALID,917.796,VALID,0,VALID,97.9046,VALID,0,VALID,16.0587,VALID,139,VALID,1.11185,
2004-08-07, 02:28:00,VALID,917.795,VALID,0,VALID,97.7775,VALID,-0.0169808,VALID,16.1333,VALID,136,VALID,1.1713,
2004-08-07, 02:29:00,VALID,917.787,VALID,0,VALID,97.1862,VALID,0,VALID,16.2041,VALID,127,VALID,1.23132,
2004-08-07, 02:30:00,VALID,917.779,VALID,0,VALID,96.9802,VALID,-0.0169808,VALID,16.282,VALID,132,VALID,1.50355,
2004-08-07, 02:31:00,VALID,917.787,VALID,0,VALID,96.6394,VALID,-0.0169808,VALID,16.3788,VALID,134,VALID,1.33784,
2004-08-07, 02:32:00,VALID,917.781,VALID,0,VALID,96.2007,VALID,0,VALID,16.4657,VALID,138,VALID,1.36846,
2004-08-07, 02:33:00,VALID,917.783,VALID,0,VALID,95.7951,VALID,-0.0169808,VALID,16.5364,VALID,144,VALID,1.38121,
2004-08-07, 02:34:00,VALID,917.774,VALID,0,VALID,95.5026,VALID,-0.0339617,VALID,16.6042,VALID,141,VALID,1.5229,
2004-08-07, 02:35:00,VALID,917.772,VALID,0,VALID,95.3207,VALID,-0.0169808,VALID,16.6488,VALID,140,VALID,1.65835,
2004-08-07, 02:36:00,VALID,917.764,VALID,0,VALID,95.2762,VALID,-0.0339617,VALID,16.7103,VALID,140,VALID,1.35885,
2004-08-07, 02:37:00,VALID,917.752,VALID,0,VALID,95.1173,VALID,0,VALID,16.7656,VALID,137,VALID,1.35096,
2004-08-07, 02:38:00,VALID,917.742,VALID,0,VALID,95.0346,VALID,0,VALID,16.8045,VALID,128,VALID,1.2178,
2004-08-07, 02:39:00,VALID,917.728,VALID,0,VALID,94.8375,VALID,-0.0169808,VALID,16.8138,VALID,129,VALID,1.17281,
2004-08-07, 02:40:00,VALID,917.715,VALID,0,VALID,94.6951,VALID,0,VALID,16.7976,VALID,129,VALID,1.14503,
2004-08-07, 02:41:00,VALID,917.711,VALID,0,VALID,94.7765,VALID,0.0169808,VALID,16.7815,VALID,128,VALID,1.23363,
2004-08-07, 02:42:00,VALID,917.714,VALID,0,VALID,95.1071,VALID,0,VALID,16.7976,VALID,131,VALID,1.31875,
2004-08-07, 02:43:00,VALID,917.711,VALID,0,VALID,94.9558,VALID,0,VALID,16.8327,VALID,134,VALID,1.06942,
2004-08-07, 02:44:00,VALID,917.701,VALID,0,VALID,94.9965,VALID,0,VALID,16.8785,VALID,136,VALID,1.23735,
2004-08-07, 02:45:00,VALID,917.697,VALID,0,VALID,94.8185,VALID,0,VALID,16.9136,VALID,135,VALID,1.2663,
2004-08-07, 02:46:00,VALID,917.684,VALID,0,VALID,94.3734,VALID,0,VALID,16.9648,VALID,132,VALID,1.26804,
2004-08-07, 02:47:00,VALID,917.668,VALID,0,VALID,93.9932,VALID,0,VALID,17.0141,VALID,129,VALID,1.33887,
2004-08-07, 02:48:00,VALID,917.648,VALID,0,VALID,93.6155,VALID,0,VALID,17.0717,VALID,127,VALID,1.39098,
2004-08-07, 02:49:00,VALID,917.631,VALID,0,VALID,93.0942,VALID,-0.0169808,VALID,17.1365,VALID,120,VALID,1.19822,
2004-08-07, 02:50:00,VALID,917.624,VALID,0,VALID,92.8373,VALID,0,VALID,17.1713,VALID,122,VALID,1.26435,
2004-08-07, 02:51:00,VALID,917.62,VALID,0,VALID,92.5359,VALID,0,VALID,17.22,VALID,130,VALID,1.23619,
2004-08-07, 02:52:00,VALID,917.626,VALID,0,VALID,92.1049,VALID,0.0169808,VALID,17.2589,VALID,119,VALID,0.90625,
2004-08-07, 02:53:00,VALID,917.61,VALID,0,VALID,91.6878,VALID,0,VALID,17.2555,VALID,119,VALID,0.806818,
2004-08-07, 02:54:00,VALID,917.599,VALID,0,VALID,91.8989,VALID,0,VALID,17.2109,VALID,123,VALID,0.928779,
2004-08-07, 02:55:00,VALID,917.595,VALID,0,VALID,91.689,VALID,0,VALID,17.1356,VALID,121,VALID,0.756771,
2004-08-07, 02:56:00,VALID,917.578,VALID,0,VALID,92.3973,VALID,-0.0509425,VALID,17.0719,VALID,121,VALID,0.692294,
2004-08-07, 02:57:00,VALID,917.584,VALID,0,VALID,92.9823,VALID,-0.0339617,VALID,16.9878,VALID,113,VALID,0.710029,
2004-08-07, 02:58:00,VALID,917.583,VALID,0,VALID,93.4235,VALID,-0.0509425,VALID,16.8906,VALID,108,VALID,0.721657,
2004-08-07, 02:59:00,VALID,917.583,VALID,0,VALID,93.6677,VALID,-0.0339617,VALID,16.8103,VALID,112,VALID,0.811914,
2004-08-07, 03:00:00,VALID,917.586,VALID,0,VALID,94.245,VALID,-0.0679233,VALID,16.7099,VALID,98,VALID,0.777734,
2004-08-07, 03:01:00,VALID,917.6,VALID,0,VALID,94.5082,VALID,-0.0169808,VALID,16.6552,VALID,121,VALID,0.87407,
2004-08-07, 03:02:00,VALID,917.605,VALID,0,VALID,94.9812,VALID,-0.0169808,VALID,16.6171,VALID,129,VALID,1.21627,
2004-08-07, 03:03:00,VALID,917.599,VALID,0,VALID,94.8503,VALID,-0.0169808,VALID,16.6552,VALID,125,VALID,1.36537,
2004-08-07, 03:04:00,VALID,917.595,VALID,0,VALID,94.3416,VALID,-0.0339617,VALID,16.7395,VALID,124,VALID,1.21021,
2004-08-07, 03:05:00,VALID,917.584,VALID,0,VALID,93.6524,VALID,-0.0339617,VALID,16.7811,VALID,118,VALID,1.06898,
2004-08-07, 03:06:00,VALID,917.574,VALID,0,VALID,93.3447,VALID,-0.0339617,VALID,16.7847,VALID,120,VALID,1.05869,
2004-08-07, 03:07:00,VALID,917.585,VALID,0,VALID,92.7559,VALID,-0.0679233,VALID,16.7266,VALID,119,VALID,0.57706,
2004-08-07, 03:08:00,VALID,917.592,VALID,0,VALID,93.73,VALID,-0.0169808,VALID,16.6361,VALID,118,VALID,0.787919,
2004-08-07, 03:09:00,VALID,917.604,VALID,0,VALID,94.334,VALID,0.0509425,VALID,16.5862,VALID,118,VALID,0.971094,
2004-08-07, 03:10:00,VALID,917.589,VALID,0,VALID,94.4141,VALID,0.0339617,VALID,16.6064,VALID,119,VALID,1.02191,
2004-08-07, 03:11:00,VALID,917.589,VALID,0,VALID,93.7986,VALID,0.0509425,VALID,16.6251,VALID,126,VALID,0.865663,
2004-08-07, 03:12:00,VALID,917.578,VALID,0,VALID,93.6028,VALID,0.101885,VALID,16.635,VALID,126,VALID,0.863653,
2004-08-07, 03:13:00,VALID,917.588,VALID,0,VALID,93.262,VALID,0.0339617,VALID,16.5991,VALID,115,VALID,0.551042,
2004-08-07, 03:14:00,VALID,917.569,VALID,0,VALID,92.8106,VALID,0.0339617,VALID,16.5443,VALID,120,VALID,0.212984,
2004-08-07, 03:15:00,VALID,917.563,VALID,0,VALID,93.7834,VALID,0.0679233,VALID,16.4838,VALID,120,VALID,0.362926,
2004-08-07, 03:16:00,VALID,917.554,VALID,0,VALID,93.8838,VALID,0.0679233,VALID,16.393,VALID,120,VALID,0.314317,
2004-08-07, 03:17:00,VALID,917.566,VALID,0,VALID,94.5057,VALID,0.0679233,VALID,16.2995,VALID,120,VALID,0.363186,
2004-08-07, 03:18:00,VALID,917.559,VALID,0,VALID,95.2419,VALID,0.0849042,VALID,16.2386,VALID,120,VALID,0.277604,
2004-08-07, 03:19:00,VALID,917.56,VALID,0,VALID,95.7417,VALID,0.0509425,VALID,16.1765,VALID,120,VALID,0.146391,
2004-08-07, 03:20:00,VALID,917.552,VALID,0,VALID,96.4588,VALID,0.0849042,VALID,16.1704,VALID,120,VALID,0,
2004-08-07, 03:21:00,VALID,917.54,VALID,0,VALID,96.8251,VALID,0.0679233,VALID,16.1958,VALID,120,VALID,0,
2004-08-07, 03:22:00,VALID,917.533,VALID,0,VALID,96.7437,VALID,0.0339617,VALID,16.2384,VALID,120,VALID,0,
2004-08-07, 03:23:00,VALID,917.529,VALID,0,VALID,96.6025,VALID,0,VALID,16.2545,VALID,120,VALID,0.0883152,
2004-08-07, 03:24:00,VALID,917.533,VALID,0,VALID,96.5796,VALID,-0.0169808,VALID,16.2618,VALID,120,VALID,0.158794,
2004-08-07, 03:25:00,VALID,917.542,VALID,0,VALID,96.7449,VALID,-0.0679233,VALID,16.2813,VALID,120,VALID,0.194767,
2004-08-07, 03:26:00,VALID,917.536,VALID,0,VALID,96.7068,VALID,-0.0339617,VALID,16.314,VALID,120,VALID,0.314135,
2004-08-07, 03:27:00,VALID,917.542,VALID,0,VALID,96.6598,VALID,-0.0849042,VALID,16.3332,VALID,120,VALID,0.465774,
2004-08-07, 03:28:00,VALID,917.531,VALID,0,VALID,96.4741,VALID,-0.0849042,VALID,16.3332,VALID,120,VALID,0.491824,
2004-08-07, 03:29:00,VALID,917.52,VALID,0,VALID,96.0812,VALID,-0.101885,VALID,16.3205,VALID,120,VALID,0.619284,
2004-08-07, 03:30:00,VALID,917.518,VALID,0,VALID,96.0697,VALID,-0.0509425,VALID,16.2749,VALID,120,VALID,0.582403,
2004-08-07, 03:31:00,VALID,917.503,VALID,0,VALID,95.5713,VALID,-0.0169808,VALID,16.2458,VALID,120,VALID,0.349382,
2004-08-07, 03:32:00,VALID,917.503,VALID,0,VALID,96.1333,VALID,-0.0679233,VALID,16.1783,VALID,120,VALID,0.20503,
2004-08-07, 03:33:00,VALID,917.494,VALID,0,VALID,96.6356,VALID,-0.0339617,VALID,16.1815,VALID,120,VALID,0.109756,